When you browse on this site, cookies collect data to enhance your experience and personalize the content and advertising you see.
Visit our Privacy Policy to learn more. By continuing to use the site, you agree to this use of cookies and data.
  • în România
  • Lista ţărilor
  • Pe 7 zile
  • Temperatura apei
  • Meteo pe hartă
  • Widget-uri
  • user-avatar
    Intrare

    Meteo pe oră la Dori

    Astăzi, 15 Septembrie, Duminică

    Timp Temperatura Precipitaţii Vânt Presiune Umiditate
    00:00 +32°C° 0 mm 5 m/s 733 mmHg 58%
    01:00 +30°C° 0 mm 4 m/s 733 mmHg 57%
    02:00 +30°C° 0 mm 4 m/s 733 mmHg 57%
    03:00 +30°C° 0 mm 4 m/s 732 mmHg 56%
    04:00 +30°C° 0 mm 3 m/s 733 mmHg 57%
    05:00 +29°C° 0 mm 3 m/s 733 mmHg 58%
    06:00 +29°C° 0 mm 2 m/s 734 mmHg 54%
    07:00 +30°C° 0 mm 2 m/s 734 mmHg 52%
    08:00 +31°C° 0 mm 3 m/s 735 mmHg 49%
    09:00 +33°C° 0 mm 3 m/s 735 mmHg 47%
    10:00 +34°C° 0 mm 4 m/s 735 mmHg 44%
    11:00 +36°C° 0 mm 4 m/s 735 mmHg 41%
    12:00 +37°C° 0 mm 4 m/s 734 mmHg 38%
    13:00 +38°C° 0 mm 4 m/s 733 mmHg 36%
    14:00 +38°C° 0 mm 3 m/s 732 mmHg 35%
    15:00 +39°C° 0 mm 2 m/s 732 mmHg 33%
    16:00 +38°C° 0 mm 2 m/s 732 mmHg 34%
    17:00 +38°C° 0 mm 2 m/s 732 mmHg 35%
    18:00 +38°C° 0 mm 2 m/s 732 mmHg 36%
    19:00 +36°C° 0 mm 3 m/s 732 mmHg 44%
    20:00 +34°C° 0 mm 5 m/s 733 mmHg 52%
    21:00 +32°C° 0 mm 6 m/s 733 mmHg 61%
    22:00 +32°C° 0 mm 6 m/s 733 mmHg 61%
    23:00 +32°C° 0 mm 6 m/s 733 mmHg 60%

    Mâine, 16 Septembrie, Luni

    Timp Temperatura Precipitaţii Vânt Presiune Umiditate
    00:00 +32°C° 0 mm 7 m/s 733 mmHg 60%
    01:00 +32°C° 0 mm 6 m/s 733 mmHg 61%
    02:00 +30°C° 0 mm 6 m/s 733 mmHg 61%
    03:00 +30°C° 0 mm 5 m/s 732 mmHg 61%
    04:00 +30°C° 0 mm 5 m/s 733 mmHg 63%
    05:00 +30°C° 0 mm 4 m/s 733 mmHg 65%
    06:00 +30°C° 0 mm 4 m/s 733 mmHg 66%
    07:00 +30°C° 0 mm 3 m/s 734 mmHg 64%
    08:00 +31°C° 0 mm 3 m/s 734 mmHg 62%
    09:00 +31°C° 0 mm 3 m/s 735 mmHg 59%
    10:00 +34°C° 0 mm 4 m/s 735 mmHg 53%
    11:00 +36°C° 0 mm 4 m/s 734 mmHg 46%
    12:00 +37°C° 0 mm 5 m/s 734 mmHg 40%
    13:00 +38°C° 0 mm 4 m/s 733 mmHg 38%
    14:00 +38°C° 0 mm 4 m/s 733 mmHg 36%
    15:00 +38°C° 0 mm 3 m/s 732 mmHg 35%
    16:00 +38°C° 0 mm 3 m/s 732 mmHg 37%
    17:00 +37°C° 0 mm 4 m/s 732 mmHg 39%
    18:00 +36°C° 0 mm 4 m/s 732 mmHg 41%
    19:00 +35°C° 0 mm 4 m/s 733 mmHg 45%
    20:00 +34°C° 0 mm 4 m/s 733 mmHg 50%
    21:00 +33°C° 0 mm 5 m/s 734 mmHg 54%
    22:00 +33°C° 0 mm 4 m/s 734 mmHg 56%
    23:00 +33°C° 0 mm 4 m/s 734 mmHg 57%

    Poimâine, 17 Septembrie, Marţi

    Timp Temperatura Precipitaţii Vânt Presiune Umiditate
    00:00 +31°C° 0 mm 3 m/s 734 mmHg 59%
    01:00 +32°C° 0.1 mm 4 m/s 734 mmHg 61%
    02:00 +30°C° 0.1 mm 5 m/s 733 mmHg 63%
    03:00 +30°C° 0.1 mm 5 m/s 733 mmHg 65%
    04:00 +29°C° 0 mm 5 m/s 733 mmHg 65%
    05:00 +29°C° 0 mm 5 m/s 733 mmHg 64%
    06:00 +28°C° 0 mm 5 m/s 734 mmHg 64%
    07:00 +29°C° 0 mm 4 m/s 734 mmHg 63%
    08:00 +29°C° 0 mm 4 m/s 734 mmHg 62%
    09:00 +30°C° 0 mm 3 m/s 735 mmHg 62%
    10:00 +31°C° 0 mm 3 m/s 734 mmHg 57%
    11:00 +32°C° 0 mm 2 m/s 734 mmHg 52%
    12:00 +34°C° 0 mm 2 m/s 733 mmHg 47%
    13:00 +35°C° 0 mm 2 m/s 733 mmHg 44%
    14:00 +36°C° 0 mm 2 m/s 732 mmHg 41%
    15:00 +37°C° 0 mm 2 m/s 732 mmHg 38%
    16:00 +36°C° 0.1 mm 3 m/s 732 mmHg 40%
    17:00 +36°C° 0.1 mm 4 m/s 732 mmHg 42%
    18:00 +35°C° 0.1 mm 5 m/s 732 mmHg 45%
    19:00 +35°C° 0 mm 4 m/s 732 mmHg 46%
    20:00 +34°C° 0 mm 4 m/s 733 mmHg 47%
    21:00 +34°C° 0 mm 3 m/s 733 mmHg 48%
    22:00 +33°C° 0 mm 4 m/s 733 mmHg 52%
    23:00 +32°C° 0 mm 5 m/s 733 mmHg 55%

    18 Septembrie, Miercuri

    Timp Temperatura Precipitaţii Vânt Presiune Umiditate
    00:00 +32°C° 0 mm 6 m/s 734 mmHg 59%
    01:00 +30°C° 0 mm 6 m/s 733 mmHg 64%
    02:00 +29°C° 0 mm 6 m/s 733 mmHg 68%
    03:00 +28°C° 0 mm 6 m/s 733 mmHg 73%
    04:00 +28°C° 0 mm 6 m/s 733 mmHg 74%
    05:00 +28°C° 0 mm 5 m/s 734 mmHg 75%
    06:00 +28°C° 0 mm 5 m/s 734 mmHg 76%
    07:00 +29°C° 0 mm 6 m/s 734 mmHg 71%
    08:00 +30°C° 0 mm 6 m/s 735 mmHg 65%
    09:00 +32°C° 0 mm 7 m/s 735 mmHg 59%
    10:00 +33°C° 0 mm 7 m/s 735 mmHg 54%
    11:00 +35°C° 0 mm 6 m/s 734 mmHg 48%
    12:00 +36°C° 0 mm 6 m/s 734 mmHg 42%
    13:00 +37°C° 0 mm 5 m/s 734 mmHg 41%
    14:00 +37°C° 0 mm 5 m/s 733 mmHg 40%
    15:00 +37°C° 0 mm 4 m/s 733 mmHg 38%
    16:00 +37°C° 0 mm 4 m/s 733 mmHg 40%
    17:00 +36°C° 0 mm 5 m/s 733 mmHg 42%
    18:00 +35°C° 0 mm 5 m/s 733 mmHg 44%
    19:00 +35°C° 0 mm 5 m/s 733 mmHg 46%
    20:00 +34°C° 0 mm 5 m/s 734 mmHg 49%
    21:00 +33°C° 0 mm 4 m/s 734 mmHg 52%
    22:00 +33°C° 0 mm 4 m/s 734 mmHg 53%
    23:00 +33°C° 0 mm 4 m/s 734 mmHg 55%

    19 Septembrie, Joi

    Timp Temperatura Precipitaţii Vânt Presiune Umiditate
    00:00 +32°C° 0 mm 4 m/s 734 mmHg 57%
    01:00 +32°C° 0 mm 5 m/s 734 mmHg 60%
    02:00 +30°C° 0 mm 5 m/s 734 mmHg 63%
    03:00 +30°C° 0 mm 6 m/s 733 mmHg 66%
    04:00 +29°C° 0 mm 5 m/s 733 mmHg 68%
    05:00 +29°C° 0 mm 5 m/s 734 mmHg 69%
    06:00 +29°C° 0 mm 4 m/s 734 mmHg 71%
    07:00 +30°C° 0 mm 4 m/s 735 mmHg 66%
    08:00 +32°C° 0 mm 4 m/s 735 mmHg 60%
    09:00 +34°C° 0 mm 4 m/s 735 mmHg 55%
    10:00 +35°C° 0 mm 3 m/s 735 mmHg 50%
    11:00 +36°C° 0 mm 2 m/s 735 mmHg 45%
    12:00 +37°C° 0 mm 2 m/s 734 mmHg 40%
    13:00 +37°C° 0 mm 1 m/s 734 mmHg 37%
    14:00 +39°C° 0 mm 1 m/s 733 mmHg 34%
    15:00 +40°C° 0 mm 1 m/s 732 mmHg 31%
    16:00 +39°C° 0 mm 2 m/s 732 mmHg 32%
    17:00 +39°C° 0 mm 3 m/s 732 mmHg 33%
    18:00 +38°C° 0 mm 4 m/s 732 mmHg 34%
    19:00 +37°C° 0.3 mm 5 m/s 733 mmHg 38%
    20:00 +36°C° 0.3 mm 5 m/s 733 mmHg 42%
    21:00 +35°C° 0.3 mm 6 m/s 733 mmHg 47%
    22:00 +34°C° 0 mm 6 m/s 734 mmHg 50%
    23:00 +33°C° 0 mm 6 m/s 734 mmHg 53%

    20 Septembrie, Vineri

    Timp Temperatura Precipitaţii Vânt Presiune Umiditate
    00:00 +33°C° 0 mm 7 m/s 734 mmHg 56%
    01:00 +32°C° 0 mm 6 m/s 733 mmHg 58%
    02:00 +32°C° 0 mm 6 m/s 733 mmHg 59%
    03:00 +30°C° 0 mm 5 m/s 733 mmHg 61%
    04:00 +30°C° 0 mm 5 m/s 733 mmHg 61%
    05:00 +30°C° 0 mm 5 m/s 733 mmHg 62%
    06:00 +29°C° 0 mm 4 m/s 734 mmHg 63%
    07:00 +32°C° 0 mm 5 m/s 734 mmHg 58%
    08:00 +33°C° 0 mm 6 m/s 735 mmHg 53%
    09:00 +34°C° 0 mm 7 m/s 735 mmHg 48%
    10:00 +35°C° 0 mm 6 m/s 735 mmHg 44%
    11:00 +36°C° 0 mm 5 m/s 735 mmHg 40%
    12:00 +39°C° 0 mm 5 m/s 734 mmHg 37%
    13:00 +38°C° 0 mm 4 m/s 733 mmHg 35%
    14:00 +39°C° 0 mm 3 m/s 733 mmHg 33%
    15:00 +39°C° 0 mm 3 m/s 732 mmHg 31%
    16:00 +39°C° 0 mm 3 m/s 732 mmHg 31%
    17:00 +39°C° 0 mm 2 m/s 732 mmHg 32%
    18:00 +39°C° 0 mm 2 m/s 732 mmHg 32%
    19:00 +38°C° 0 mm 3 m/s 732 mmHg 34%
    20:00 +37°C° 0 mm 3 m/s 733 mmHg 36%
    21:00 +36°C° 0 mm 4 m/s 733 mmHg 39%
    22:00 +36°C° 0 mm 3 m/s 733 mmHg 41%
    23:00 +35°C° 0 mm 3 m/s 733 mmHg 43%
    Arată mai mult